This is the latest recevied weather packets stored in our database for station/object K7FLA. If no packets are shown the sender has not sent any weather packets the latest 1 day(s).
| Time | Temp. | Humidity | Pressure | Rain* | Wind** | Luminosity | Snow |
|---|---|---|---|---|---|---|---|
| 1778040413 | 11.67° C | 72% | 1096.2 hPa | 0 mm | 0.89 m/s, 206° | 0 W/m² | - |
| 1778040109 | 11.67° C | 71% | 1096.1 hPa | 0 mm | 1.79 m/s, 180° | 0 W/m² | - |
| 1778039807 | 11.67° C | 71% | 1096.1 hPa | 0 mm | 0.89 m/s, 163° | 0 W/m² | - |
| 1778039503 | 11.67° C | 71% | 1095.9 hPa | 0 mm | 1.34 m/s, 214° | 0 W/m² | - |
| 1778039200 | 11.67° C | 70% | 1095.7 hPa | 0 mm | 1.34 m/s, 137° | 0 W/m² | - |
| 1778038897 | 11.67° C | 70% | 1095.9 hPa | 0 mm | 0.89 m/s, 196° | 0 W/m² | - |
| 1778038594 | 12.22° C | 70% | 1095.9 hPa | 0 mm | 1.34 m/s, 177° | 0 W/m² | - |
| 1778038291 | 12.22° C | 70% | 1095.7 hPa | 0 mm | 1.34 m/s, 228° | 0 W/m² | - |
| 1778037989 | 12.22° C | 70% | 1095.7 hPa | 0 mm | 0.89 m/s, 183° | 0 W/m² | - |
| 1778037685 | 12.22° C | 69% | 1095.6 hPa | 0 mm | 1.34 m/s, 201° | 0 W/m² | - |
| 1778037382 | 12.22° C | 69% | 1095.6 hPa | 0 mm | 1.34 m/s, 187° | 0 W/m² | - |
| 1778037079 | 12.22° C | 69% | 1095.5 hPa | 0 mm | 0.45 m/s, 127° | 0 W/m² | - |
| 1778036778 | 12.22° C | 69% | 1095.5 hPa | 0 mm | 1.34 m/s, 153° | 0 W/m² | - |
| 1778036475 | 12.22° C | 68% | 1095.2 hPa | 0 mm | 1.79 m/s, 241° | 0 W/m² | - |
| 1778036172 | 12.22° C | 68% | 1095.3 hPa | 0 mm | 0.45 m/s, 113° | 0 W/m² | - |
| 1778035867 | 12.22° C | 68% | 1095.2 hPa | 0 mm | 0.89 m/s, 126° | 0 W/m² | - |
| 1778035565 | 12.22° C | 68% | 1095.3 hPa | 0 mm | 0.89 m/s, 229° | 0 W/m² | - |
| 1778035261 | 12.22° C | 67% | 1095 hPa | 0 mm | 1.34 m/s, 156° | 0 W/m² | - |
| 1778034957 | 12.78° C | 67% | 1095 hPa | 0 mm | 0.45 m/s, 167° | 0 W/m² | - |
| 1778034655 | 12.78° C | 66% | 1094.9 hPa | 0 mm | 1.79 m/s, 115° | 1 W/m² | - |
| 1778034352 | 12.78° C | 66% | 1094.8 hPa | 0 mm | 0.45 m/s, 200° | 1 W/m² | - |
| 1778034050 | 12.78° C | 66% | 1094.8 hPa | 0 mm | 0.89 m/s, 192° | 2 W/m² | - |
| 1778033747 | 12.78° C | 66% | 1094.7 hPa | 0 mm | 1.34 m/s, 144° | 4 W/m² | - |
| 1778033444 | 12.78° C | 66% | 1094.6 hPa | 0 mm | 0.45 m/s, 184° | 6 W/m² | - |
| 1778033142 | 12.78° C | 66% | 1094.7 hPa | 0 mm | 1.79 m/s, 149° | 8 W/m² | - |
* Rain latest hour (hover to see other rain measurements)
** Current wind speed in m/s (hover to see current wind gust speed)